• In Netherlands
  • List of Countries
  • For 7 days
  • Water Temperature
  • Satellite Maps
  • Weather Map
  • Weather Widgets
  • user-avatar
    Login

    Hourly Weather Viedma

    Today, 24 May, Wednesday

    Time Temperature Precipitation Wind Pressure Humidity
    00:00 +13°C° 0 mm 2 mps 758 mmHg 76%
    01:00 +12°C° 0 mm 3 mps 758 mmHg 74%
    02:00 +11°C° 0 mm 3 mps 758 mmHg 71%
    03:00 +11°C° 0 mm 3 mps 758 mmHg 70%
    04:00 +11°C° 0 mm 3 mps 757 mmHg 68%
    05:00 +10°C° 0 mm 3 mps 757 mmHg 66%
    06:00 +10°C° 0 mm 3 mps 758 mmHg 63%
    07:00 +10°C° 0 mm 3 mps 758 mmHg 60%
    08:00 +10°C° 0 mm 3 mps 758 mmHg 57%
    09:00 +11°C° 0 mm 3 mps 758 mmHg 52%
    10:00 +12°C° 0 mm 3 mps 758 mmHg 47%
    11:00 +12°C° 0 mm 3 mps 759 mmHg 42%
    12:00 +13°C° 0 mm 3 mps 758 mmHg 39%
    13:00 +14°C° 0 mm 4 mps 758 mmHg 35%
    14:00 +15°C° 0 mm 4 mps 757 mmHg 31%
    15:00 +14°C° 0 mm 4 mps 757 mmHg 33%
    16:00 +13°C° 0 mm 4 mps 757 mmHg 36%
    17:00 +12°C° 0 mm 4 mps 757 mmHg 39%
    18:00 +12°C° 0 mm 4 mps 758 mmHg 41%
    19:00 +11°C° 0 mm 4 mps 758 mmHg 43%
    20:00 +11°C° 0 mm 4 mps 758 mmHg 45%
    21:00 +10°C° 0 mm 4 mps 758 mmHg 46%
    22:00 +10°C° 0 mm 4 mps 758 mmHg 48%
    23:00 +8°C° 0 mm 4 mps 758 mmHg 50%

    Tomorrow, 25 May, Thursday

    Time Temperature Precipitation Wind Pressure Humidity
    00:00 +8°C° 0 mm 4 mps 758 mmHg 50%
    01:00 +8°C° 0 mm 4 mps 758 mmHg 51%
    02:00 +7°C° 0 mm 4 mps 757 mmHg 51%
    03:00 +7°C° 0 mm 4 mps 757 mmHg 52%
    04:00 +7°C° 0 mm 4 mps 757 mmHg 53%
    05:00 +7°C° 0 mm 5 mps 757 mmHg 54%
    06:00 +7°C° 0 mm 4 mps 757 mmHg 55%
    07:00 +7°C° 0 mm 4 mps 757 mmHg 55%
    08:00 +7°C° 0 mm 4 mps 757 mmHg 56%
    09:00 +8°C° 0 mm 4 mps 757 mmHg 50%
    10:00 +9°C° 0 mm 5 mps 757 mmHg 44%
    11:00 +12°C° 0 mm 5 mps 757 mmHg 38%
    12:00 +13°C° 0 mm 5 mps 757 mmHg 35%
    13:00 +14°C° 0 mm 5 mps 757 mmHg 33%
    14:00 +14°C° 0 mm 5 mps 757 mmHg 31%
    15:00 +14°C° 0 mm 4 mps 757 mmHg 35%
    16:00 +13°C° 0 mm 4 mps 757 mmHg 39%
    17:00 +12°C° 0 mm 3 mps 757 mmHg 43%
    18:00 +11°C° 0 mm 3 mps 758 mmHg 46%
    19:00 +11°C° 0 mm 4 mps 758 mmHg 50%
    20:00 +10°C° 0 mm 4 mps 758 mmHg 54%
    21:00 +10°C° 0 mm 4 mps 759 mmHg 56%
    22:00 +10°C° 0 mm 4 mps 759 mmHg 58%
    23:00 +10°C° 0 mm 4 mps 759 mmHg 61%

    Day after tomorrow, 26 May, Friday

    Time Temperature Precipitation Wind Pressure Humidity
    00:00 +10°C° 0 mm 4 mps 759 mmHg 62%
    01:00 +8°C° 0 mm 4 mps 760 mmHg 63%
    02:00 +8°C° 0 mm 5 mps 760 mmHg 63%
    03:00 +8°C° 0 mm 5 mps 760 mmHg 65%
    04:00 +8°C° 0 mm 5 mps 761 mmHg 66%
    05:00 +8°C° 0 mm 5 mps 761 mmHg 68%
    06:00 +8°C° 0 mm 4 mps 762 mmHg 69%
    07:00 +8°C° 0 mm 4 mps 763 mmHg 71%
    08:00 +8°C° 0 mm 4 mps 764 mmHg 72%
    09:00 +10°C° 0 mm 4 mps 764 mmHg 66%
    10:00 +12°C° 0 mm 4 mps 765 mmHg 61%
    11:00 +13°C° 0 mm 4 mps 766 mmHg 55%
    12:00 +13°C° 0 mm 4 mps 766 mmHg 54%
    13:00 +13°C° 0 mm 3 mps 766 mmHg 53%
    14:00 +13°C° 0 mm 3 mps 766 mmHg 51%
    15:00 +13°C° 0 mm 3 mps 766 mmHg 55%
    16:00 +13°C° 0 mm 2 mps 766 mmHg 59%
    17:00 +12°C° 0 mm 2 mps 766 mmHg 63%
    18:00 +12°C° 0 mm 2 mps 766 mmHg 66%
    19:00 +10°C° 0 mm 2 mps 767 mmHg 70%
    20:00 +10°C° 0 mm 2 mps 767 mmHg 73%
    21:00 +10°C° 0 mm 2 mps 767 mmHg 74%
    22:00 +9°C° 0 mm 3 mps 767 mmHg 75%
    23:00 +9°C° 0 mm 3 mps 767 mmHg 77%

    27 May, Saturday

    Time Temperature Precipitation Wind Pressure Humidity
    00:00 +9°C° 0 mm 3 mps 767 mmHg 77%
    01:00 +9°C° 0 mm 3 mps 767 mmHg 78%
    02:00 +8°C° 0 mm 4 mps 767 mmHg 78%
    03:00 +7°C° 0 mm 4 mps 767 mmHg 79%
    04:00 +7°C° 0 mm 4 mps 766 mmHg 79%
    05:00 +7°C° 0 mm 4 mps 766 mmHg 79%
    06:00 +7°C° 0 mm 4 mps 766 mmHg 78%
    07:00 +7°C° 0 mm 4 mps 766 mmHg 76%
    08:00 +7°C° 0 mm 4 mps 766 mmHg 74%
    09:00 +8°C° 0 mm 5 mps 766 mmHg 66%
    10:00 +9°C° 0 mm 5 mps 766 mmHg 58%
    11:00 +11°C° 0 mm 6 mps 766 mmHg 50%
    12:00 +13°C° 0 mm 6 mps 765 mmHg 47%
    13:00 +13°C° 0 mm 6 mps 764 mmHg 44%
    14:00 +14°C° 0 mm 7 mps 764 mmHg 40%
    15:00 +13°C° 0 mm 6 mps 763 mmHg 43%
    16:00 +12°C° 0 mm 5 mps 763 mmHg 46%
    17:00 +12°C° 0 mm 5 mps 762 mmHg 48%
    18:00 +10°C° 0 mm 5 mps 762 mmHg 51%
    19:00 +10°C° 0 mm 5 mps 762 mmHg 54%
    20:00 +9°C° 0 mm 6 mps 762 mmHg 58%
    21:00 +9°C° 0 mm 6 mps 762 mmHg 61%
    22:00 +9°C° 0 mm 7 mps 762 mmHg 65%
    23:00 +9°C° 0 mm 7 mps 762 mmHg 68%

    28 May, Sunday

    Time Temperature Precipitation Wind Pressure Humidity
    00:00 +8°C° 0 mm 7 mps 761 mmHg 69%
    01:00 +8°C° 0 mm 7 mps 761 mmHg 69%
    02:00 +8°C° 0 mm 7 mps 761 mmHg 70%
    03:00 +8°C° 0 mm 7 mps 760 mmHg 70%
    04:00 +8°C° 0 mm 7 mps 760 mmHg 70%
    05:00 +6°C° 0 mm 7 mps 760 mmHg 70%
    06:00 +6°C° 0 mm 7 mps 760 mmHg 72%
    07:00 +6°C° 0 mm 7 mps 760 mmHg 73%
    08:00 +7°C° 0 mm 6 mps 760 mmHg 74%
    09:00 +8°C° 0 mm 6 mps 760 mmHg 69%
    10:00 +9°C° 0 mm 6 mps 760 mmHg 64%
    11:00 +11°C° 0 mm 6 mps 761 mmHg 59%
    12:00 +11°C° 0 mm 6 mps 760 mmHg 57%
    13:00 +13°C° 0 mm 6 mps 760 mmHg 55%
    14:00 +14°C° 0 mm 6 mps 760 mmHg 53%
    15:00 +13°C° 0 mm 6 mps 761 mmHg 57%
    16:00 +11°C° 0 mm 6 mps 761 mmHg 61%
    17:00 +11°C° 0 mm 6 mps 761 mmHg 66%
    18:00 +10°C° 0 mm 6 mps 762 mmHg 69%
    19:00 +10°C° 0 mm 6 mps 763 mmHg 73%
    20:00 +9°C° 0 mm 6 mps 763 mmHg 77%
    21:00 +9°C° 0 mm 6 mps 764 mmHg 76%
    22:00 +9°C° 0 mm 5 mps 764 mmHg 76%
    23:00 +9°C° 0 mm 5 mps 765 mmHg 75%

    29 May, Monday

    Time Temperature Precipitation Wind Pressure Humidity
    00:00 +8°C° 0 mm 5 mps 765 mmHg 75%
    01:00 +8°C° 0 mm 5 mps 765 mmHg 74%
    02:00 +8°C° 0 mm 4 mps 766 mmHg 74%
    03:00 +8°C° 0 mm 4 mps 766 mmHg 74%
    04:00 +7°C° 0 mm 4 mps 766 mmHg 74%
    05:00 +7°C° 0 mm 4 mps 766 mmHg 74%
    06:00 +8°C° 0 mm 3 mps 766 mmHg 73%
    07:00 +8°C° 0 mm 3 mps 767 mmHg 73%
    08:00 +8°C° 0 mm 3 mps 767 mmHg 73%
    09:00 +9°C° 0 mm 3 mps 767 mmHg 67%
    10:00 +11°C° 0 mm 3 mps 767 mmHg 61%
    11:00 +12°C° 0 mm 3 mps 768 mmHg 55%
    12:00 +12°C° 0 mm 3 mps 767 mmHg 51%
    13:00 +13°C° 0 mm 4 mps 766 mmHg 47%
    14:00 +13°C° 0 mm 4 mps 766 mmHg 43%
    15:00 +12°C° 0 mm 4 mps 766 mmHg 46%
    16:00 +12°C° 0 mm 4 mps 766 mmHg 49%
    17:00 +11°C° 0 mm 4 mps 765 mmHg 52%
    18:00 +10°C° 0 mm 4 mps 765 mmHg 54%
    19:00 +9°C° 0 mm 5 mps 765 mmHg 56%
    20:00 +8°C° 0 mm 5 mps 765 mmHg 58%
    21:00 +8°C° 0 mm 5 mps 765 mmHg 59%
    22:00 +8°C° 0 mm 6 mps 765 mmHg 60%
    23:00 +8°C° 0 mm 6 mps 764 mmHg 62%
    Show more